Location: Bluff Heights
(33.7692°N, 118.1592°W)
Time: 11:47:22
(UTC+00:00)

S-56A Canister/Altair - Pass Details

Date: 30 July 2021
Orbit: 632 x 2500 km, 38.9° (Epoch: 25 September)

Event Time Altitude Azimuth Distance (km) Brightness Sun altitude
Rises 04:44:43 0° 292° (WNW) 6,161 13.5 -20.2°
Reaches altitude 10° 04:48:55 10° 291° (WNW) 5,073 12.7 -20.9°
Maximum altitude 05:03:09 72° 211° (SSW) 2,083 9.5 -23.0°
Enters shadow 05:08:28 36° 137° (SE) 2,537 9.5 -23.8°
